Airfield :
LOGIN :

Register | Disclaimer

   EN    FR    IT 

 










Legend :    VFR   Marginal VFR   IFR   Intensive IFR   Very Intensive IFR
Visi :
Ceiling :
>= 8 km
>= 3000ft
5 to 8 km
1000 to 3000 ft
1500m to 5 km
500 to 1000 ft
800 to 1500m
200 to 500 ft
< 800m
< 200 ft
Symbols :   Thunderstorms  Fog  Heavy snow  Heavy precipitations  Wind > 20 kt
SIGMETs :     Misc.  Thunderstorms  Icing  Turbulence  Mountain Waves  Volcanic Ashes






- Airport Elevation : 290 ft
- IATA code : LAI


LFRO - Lannion

CURRENT METAR :
  • 250500Z AUTO 19005KT CAVOK 09/08 Q1000

EXPIRED METARs :
  • 250430Z AUTO 19009KT 160V220 CAVOK 10/08 Q1000
  • 250400Z AUTO 19009KT CAVOK 10/08 Q1000
  • 250330Z AUTO 20010KT CAVOK 10/08 Q1000
  • 250300Z AUTO 18008KT 9999 FEW039/// BKN050/// BKN220/// ///CB 11/09 Q1000
  • 250230Z AUTO 19006KT 160V220 9999 FEW035/// SCT049/// BKN060/// ///TCU 10/09 Q1001

Expired Forecast.



MET'MAP, your aeronautical weather chart ! - Copyright ORBIFLY December 2007 - Disclaimer

ORBIFLY MET'MAP TEAM :

Programming & Development : Alexandra Zaïnal
Concept & original design : Baudouin d'Aumeries
Assistance for programming : Marc-Olivier Méhu
Technical & hardware support : Manuel Goepfert

Contact : metmap@orbifly.com




SOURCES & CREDITS :

   NOAA